Content
SEND FEEDBACK

Daily
Averages
Monthly
Summary
United Kingdom

LONDON, ENGLAND


Home > Europe > United Kingdom > England
Elevation: 203 feet     Latitude: 51 09N     Longitude: 000 11W

WEATHER
 
SELECT A DAY
Number of Records: 292,925;   Date Range: 7/1/96 - 7/28/14
 
SHARE

PRINT THIS DATA

[ ← Previous Day ]
WEATHER ALMANAC - JANUARY 23, 2013
[ Next Day → ]
[ °C ]   °F
Weather ElementAverageHighLow
Temperature33.9 °F35.6 °F (1:50 am)33.8 °F (12:50 am)
Dewpoint29.8 °F32 °F (1:20 pm)28.4 °F (12:50 am)
Humidity85.3 %93 % (1:20 pm)75 % (1:50 am)
Barometer29.73 in29.80 in (11:20 pm)29.65 in (12:50 am)
Wind Speed11.1 mph15 mph (5:20 am)
Weather ElementAverage
Visibility3.4 mi
Wind DirectionENE (74.5 °)

Weather ElementTotal
Precipitation---
Heating Degree Days30.3 (Base 65)
Averaged from 47 records on January 23, 2013
WEATHER CONDITIONS BREAKOUT
WIND DIRECTION BREAKOUT
WEATHER BY HOUR - JANUARY 23, 2013
[ °C ]   °F
Local TimeTemperatureDewpointHumidityBarometerVisibilityWind DirectionWind SpeedGust SpeedPrecipitationEventsConditions
12:50 AM33.8 °F28.4 °F81 %29.65 in5.0 miEast (80°)11.5 mphSnowLight Snow
1:20 AM33.8 °F28.4 °F81 %29.68 in5.0 miENE (70°)11.5 mphMostly Cloudy
1:50 AM35.6 °F28.4 °F75 %29.68 in5.0 miENE (70°)10.4 mphMostly Cloudy
2:20 AM35.6 °F28.4 °F75 %29.68 in5.0 miEast (80°)9.2 mphMostly Cloudy
2:50 AM35.6 °F28.4 °F75 %29.68 in4.3 miEast (80°)10.4 mphRain-SnowLight Rain
3:20 AM33.8 °F30.2 °F87 %29.68 in3.7 miENE (70°)13.8 mphMostly Cloudy
3:50 AM33.8 °F30.2 °F87 %29.68 in3.7 miENE (60°)13.8 mphMostly Cloudy
4:20 AM33.8 °F30.2 °F87 %29.68 in3.7 miENE (70°)12.7 mphMostly Cloudy
4:50 AM33.8 °F30.2 °F87 %29.71 in3.1 miENE (70°)12.7 mphRain-SnowLight Rain
5:20 AM33.8 °F30.2 °F87 %29.71 in3.7 miENE (70°)15.0 mphMostly Cloudy
5:50 AM33.8 °F30.2 °F87 %29.71 in3.1 miEast (80°)12.7 mphHaze
6:20 AM33.8 °F30.2 °F87 %29.71 in2.8 miENE (70°)10.4 mphHaze
6:50 AM33.8 °F30.2 °F87 %29.71 in2.8 miENE (60°)10.4 mphHaze
7:20 AM33.8 °F30.2 °F87 %29.71 in3.1 miENE (60°)12.7 mphHaze
7:50 AM33.8 °F30.2 °F87 %29.74 in2.5 miENE (70°)12.7 mphHaze
8:20 AM33.8 °F30.2 °F87 %29.74 in2.8 miENE (70°)9.2 mphHaze
8:50 AM33.8 °F30.2 °F87 %29.74 in3.1 miENE (70°)10.4 mphHaze
9:20 AM33.8 °F30.2 °F87 %29.74 in3.1 miENE (70°)10.4 mphHaze
9:50 AM33.8 °F30.2 °F87 %29.74 inENE (70°)10.4 mphHaze
10:20 AM33.8 °F30.2 °F87 %29.77 in3.1 miEast (80°)6.9 mphHaze
10:50 AM33.8 °F30.2 °F87 %29.77 in3.1 miENE (70°)8.1 mphHaze
11:20 AM33.8 °F30.2 °F87 %29.77 in4.3 miENE (70°)8.1 mphMostly Cloudy
11:50 AM33.8 °F30.2 °F87 %29.77 in3.1 miENE (70°)11.5 mphHaze
12:20 PM33.8 °F30.2 °F87 %29.74 in2.8 miENE (70°)9.2 mphHaze
12:50 PM33.8 °F30.2 °F87 %29.74 in2.2 miENE (70°)10.4 mphLight Drizzle
1:20 PM33.8 °F32.0 °F93 %29.74 in1.6 miENE (60°)11.5 mphRain-SnowLight Rain
1:50 PM33.8 °F32.0 °F93 %29.74 in1.6 miENE (70°)10.4 mphHaze
2:20 PM33.8 °F32.0 °F93 %29.74 in2.2 miEast (80°)12.7 mphHaze
2:50 PM33.8 °F30.2 °F87 %29.74 in3.1 miEast (80°)11.5 mphHaze
3:20 PM33.8 °F30.2 °F87 %29.74 in3.7 miEast (80°)12.7 mphMostly Cloudy
3:50 PM33.8 °F30.2 °F87 %29.74 in3.7 miEast (80°)11.5 mphMostly Cloudy
4:20 PM33.8 °F30.2 °F87 %29.74 in3.7 miEast (80°)12.7 mphMostly Cloudy
4:50 PM33.8 °F28.4 °F81 %29.74 in3.7 miEast (80°)10.4 mphOvercast
5:20 PM33.8 °F28.4 °F81 %29.74 in3.7 miEast (90°)11.5 mphOvercast
5:50 PM33.8 °F28.4 °F81 %29.74 in3.7 miEast (80°)10.4 mphRainLight Rain
6:20 PM33.8 °F28.4 °F81 %29.74 in3.7 miEast (80°)11.5 mphMostly Cloudy
6:50 PM33.8 °F30.2 °F87 %29.74 in3.7 miEast (80°)9.2 mphMostly Cloudy
7:20 PM33.8 °F30.2 °F87 %29.74 in3.1 miEast (80°)9.2 mphHaze
7:50 PM33.8 °F30.2 °F87 %29.74 in3.1 miEast (80°)10.4 mphHaze
8:20 PM33.8 °F30.2 °F87 %29.77 in3.1 miEast (80°)10.4 mphHaze
8:50 PM33.8 °F30.2 °F87 %29.77 in3.1 miEast (80°)10.4 mphRainLight Rain
9:20 PM33.8 °F30.2 °F87 %29.77 in2.8 miEast (80°)11.5 mphHaze
9:50 PM33.8 °F30.2 °F87 %29.77 in3.7 miEast (80°)13.8 mphMostly Cloudy
10:20 PM33.8 °F28.4 °F81 %29.77 in4.3 miEast (80°)11.5 mphMostly Cloudy
10:50 PM33.8 °F28.4 °F81 %29.77 in4.3 miEast (80°)11.5 mphMostly Cloudy
11:20 PM33.8 °F28.4 °F81 %29.80 in4.3 miEast (80°)11.5 mphMostly Cloudy
11:50 PM33.8 °F28.4 °F81 %29.80 in4.3 miENE (70°)11.5 mphMostly Cloudy
Hourly data recorded from EGKK, located miles away from London, England







STORIES FROM OUR PARTNERS